Regional Weather Roundup
Issued by NWS Green Bay, WI

Home | Current Version | Previous Version | Graphics & Text | Print | Product List | Glossary Off
Versions: 1 2 3 4 5 6 7 8 9 10 11 12 13 14 15 16 17 18 19 20 21 22 23 24 25 26 27 28 29 30 31 32 33 34 35 36 37 38 39 40 41 42 43 44 45 46 47 48 49 50

000
ASUS43 KGRB 271611
RWRGRB

NORTH-CENTRAL AND NORTHEAST WISCONSIN REGIONAL WEATHER ROUNDUP
NATIONAL WEATHER SERVICE GREEN BAY WI
1100 AM CDT MON JUL 27 2015

WIZ005-009-010>012-018-019-271700-
NORTH CENTRAL WISCONSIN

CITY           SKY/WX    TMP DP  RH WIND       PRES   REMARKS
IRONWOOD       SUNNY     81  63  54 W3        30.02S
MANITOWISH WTR SUNNY     79  58  48 SW7       30.08S
ARBOR VITAE    SUNNY     80  60  50 S5        30.08S
EAGLE RIVER    SUNNY     82  54  37 CALM      30.08R
LAND O LAKES   SUNNY     83  53  35 SW6       30.09S
RHINELANDER    SUNNY     80  55  42 SE5       30.09S
PHILLIPS       SUNNY     79  60  51 SE6       30.06S
ANTIGO         SUNNY     78  57  47 S5        30.09S
TOMAHAWK       SUNNY     80  54  41 SE6       30.08S
MERRILL        NOT AVBL
$$

WIZ013-073-271700-
NORTHEAST WISCONSIN

CITY           SKY/WX    TMP DP  RH WIND       PRES   REMARKS
IRON MOUNTAIN  SUNNY     85  61  44 VRB5      30.06R
MARINETTE      SUNNY     82  63  51 W3        30.04S
OCONTO         SUNNY     82  64  55 SE5       30.05R
$$

WIZ017-030-035>037-045-271700-
CENTRAL WISCONSIN

CITY           SKY/WX    TMP DP  RH WIND       PRES   REMARKS
MEDFORD        SUNNY     76  63  63 SE6       30.07S
WAUSAU         SUNNY     80  60  50 S8        30.05F
MOSINEE        SUNNY     77  64  65 VRB3      30.07F
MARSHFIELD     SUNNY     79  62  56 S8        30.05F
WISC RAPIDS    SUNNY     81  62  52 SE8       30.06F
STEVENS POINT  SUNNY     78  64  61 SE7       30.06F
WAUPACA        SUNNY     83  64  52 SE5       30.06S
SHAWANO        SUNNY     83  63  49 SW3       30.06S
CLINTONVILLE   SUNNY     81  61  50 S5        30.06S
$$

WIZ038-039-048-051-271700-
FOX VALLEY

CITY           SKY/WX    TMP DP  RH WIND       PRES   REMARKS
NWS GREEN BAY  MOSUNNY   83  63  50 S3        30.05S
APPLETON       MOSUNNY   81  57  44 VRB5      30.07R
OSHKOSH        MOSUNNY   81  63  54 E8        30.05S
FOND DU LAC    SUNNY     83  65  54 SE6       30.05S
$$

WIZ022-050-052-271700-
EAST CENTRAL WISCONSIN

CITY           SKY/WX    TMP DP  RH WIND       PRES   REMARKS
STURGEON BAY   SUNNY     82  63  51 NE5       30.08R
MANITOWOC      MOSUNNY   78  56  46 MISG      30.06S
SHEBOYGAN      MOSUNNY   79  65  62 VRB5      30.06S
$$

LMZ563-521-522-541>543-271700-
LAKESHORE

STATION/POSITION TIME  TEMP    WIND        PRES    VSBY  WAVE
                       AIR SEA DIR/SP/G                  HT/PER
                 (UTC) (F)     (DEG/KT/KT) (MB)    (MI)  (FT/S)
SHEBOYGAN LKSHOR 1600   72        CALM     1018.0F
KEWAUNEE LKSHORE 1500   65     170/  4/  5 1017.1R
ALGOMA MARINA    1527             CALM       N/A
TWO RIVERS CG    1510   77                 1017.8      6   0
NORTHPORT PIER   1500   76     340/  6/  6 1017.3R
N MID LAKE BUOY  1550   70 69  230/  4/  4 1017.0R         0
SISTER BAY LKSHO 1514   81        CALM       N/A
STURGEON BAY CG  1519   70     190/  4     1017.2      6   2
CHAMBERS ISLAND  1500   80     250/  2/  5 1017.3R
MENOMINEE LKSHOR 1500   73     150/  5/  6 1018.2R
$$


USA.gov is the U.S. government's official web portal to all federal, state and local government web resources and services.